Location: Mococo
(38.0255°N, 122.1161°W)
Time: 04:03:16
(UTC+00:00)

Cosmos 1400 Rocket - Visible Passes

Search period start: 14 May 2026 00:00
Search period end: 24 May 2026 00:00
Orbit: 474 x 505 km, 81.1° (Epoch: 13 May)

Date Brightness Start Highest point End Pass type
(mag) Time Alt. Az. Time Alt. Az. Time Alt. Az.
14 May 2.6 11:50:10 10° N 11:53:58 87° W 11:57:44 10° S visible
15 May 3.2 11:26:55 10° N 11:30:40 58° E 11:34:21 10° SSE visible
16 May 4.2 11:03:48 10° N 11:07:19 36° ENE 11:10:48 10° SE visible
17 May 4.9 10:40:49 10° NNE 10:43:56 24° ENE 10:47:01 10° SE visible
17 May 4.2 12:16:25 10° NW 12:19:03 18° W 12:21:39 10° SW visible
18 May 5.4 10:18:05 10° NNE 10:20:30 16° ENE 10:22:54 10° ESE visible
18 May 3.7 11:52:36 10° NNW 11:55:50 27° W 11:58:24 14° SW visible
19 May 5.7 09:56:07 10° NE 09:57:02 11° ENE 09:57:57 10° E visible
19 May 3.0 11:29:00 10° NNW 11:32:35 42° W 11:34:30 23° SSW visible
20 May 2.5 11:05:32 10° NNW 11:09:18 69° W 11:10:42 36° S visible
21 May 2.7 10:42:12 10° N 10:45:58 73° E 10:46:58 46° SSE visible
22 May 3.6 10:18:58 10° N 10:22:37 44° ENE 10:23:18 39° ESE visible
23 May 4.3 09:55:53 10° NNE 09:59:12 29° ENE 09:59:40 28° E visible
23 May 4.5 11:32:04 10° NW 11:34:06 15° W 11:34:06 15° W visible
